Johnson County (6A4)
Johnson County, TN
Field Elevation: 2240
Lat: 36°25.07N  Long: 81°49.51W
CTAF/Unicom Freq: 122.7000
   
    
Weather Advisories
10/20/2014 22:44 Z
Altimeter 30.00" Hg
Wind 250° @ 0 KT
Gusts --
Visibility 10 SM
Ceiling BKN086 OVC130
Temperature 14° C (57° F)
Dewpoint 8° C (46° F)
Relative Humidity 68%
Density Altitude --
Condensation Altitude 5,300 feet
  Wind and Runways
Indicated Runway = 24
History
 
 
More Info
All DigiWx sites map
 
Johnson County Airport FBO
 
Airport IQ 5010
(M01) General Dewitt Spain Airport
(3M3) Collegedale Muni
 
about DigiWx
 
FAA Disclaimer: The data displayed is for advisory purposes only and is not to be used for flight planning or operations. For official data, please call (not available) to hear the current automated AWOS voice message.
  METAR 6A4 202244Z AUTO 25000KT 10SM BKN086 OVC130 14/08 A3000